DateTimeUTC,F1_A11,F1_S11,BsB_S11,BsG_S11,BsR_S11,BbsB_S11,BbsG_S11,BbsR_S11,BaB_A11,BaG_A11,BaR_A11,Tu_S11,T_S11,Uu_S11,U_S11,P_S11,T1_A11
2021-03-23T00:00:00Z,00000200,21000000,,,,,,,-000.26,-000.28,-000.47,15.8,23.8,,00.0,0625.8,30.8
2021-03-23T00:01:00Z,00000200,21000000,,,,,,,-000.62,-000.32,0000.22,15.7,23.8,,00.0,0625.8,30.8
2021-03-23T00:02:00Z,00000200,21000000,,,,,,,0000.02,0000.04,-000.15,15.7,23.8,,00.0,0625.8,30.8
2021-03-23T00:03:00Z,00000200,61000000,,,,,,,0000.53,-000.17,-000.02,15.7,23.8,,00.0,0625.8,30.8
2021-03-23T00:04:00Z,00000200,41000000,0001.37,0000.78,0000.56,0000.18,0000.28,-000.06,0000.47,0000.62,0000.32,15.6,23.4,,00.0,0626.6,30.8
2021-03-23T00:05:00Z,00000200,01000000,0001.26,0000.81,0000.60,0000.02,0000.25,0000.27,0000.38,0000.82,0000.56,15.7,23.2,,00.0,0626.7,30.8
2021-03-23T00:06:00Z,00000200,01000000,0001.07,0001.00,0000.58,0000.12,0000.18,0000.27,0000.51,0000.26,0000.25,15.7,23.2,,00.0,0626.6,30.8
2021-03-23T00:07:00Z,00000200,01000000,0001.33,0000.90,0000.71,0000.08,0000.12,0000.27,0000.27,0000.32,0000.18,15.7,23.2,,00.0,0626.7,30.8
2021-03-23T00:08:00Z,00000200,01000000,0001.41,0000.92,0000.70,0000.59,0000.24,0000.32,0000.20,0000.46,0000.18,15.8,23.2,,00.0,0626.7,30.8
2021-03-23T00:09:00Z,00000200,01000000,0001.96,0001.06,0000.70,0000.34,0000.27,0000.10,0000.73,0000.32,0000.66,15.8,23.2,,00.0,0626.7,30.8
2021-03-23T00:10:00Z,00000200,01000000,0000.74,0000.77,0000.56,0000.48,0000.13,0000.19,0000.60,0000.29,0000.47,15.9,23.2,,00.0,0626.7,30.9
2021-03-23T00:11:00Z,00000200,01000000,0001.81,0001.03,0000.64,0000.05,0000.07,0000.16,0000.48,0000.48,-000.17,15.9,23.3,,00.0,0626.6,30.9
2021-03-23T00:12:00Z,00000200,01000000,0001.68,0000.99,0000.55,0000.05,0000.26,0000.15,0000.54,0000.87,0000.81,16.0,23.3,,00.0,0626.6,30.9
2021-03-23T00:13:00Z,00000200,01000000,0001.54,0001.00,0000.64,0000.22,-000.00,0000.30,0000.54,0000.30,0000.27,16.0,23.3,,00.0,0626.6,30.9
2021-03-23T00:14:00Z,00000200,01000000,0001.56,0000.89,0000.62,0000.15,-000.09,0000.58,0000.64,0000.37,0000.79,16.1,23.3,,00.0,0626.6,30.9
2021-03-23T00:15:00Z,00000200,01000000,0001.43,0000.93,0000.53,0000.58,-000.04,0000.29,0000.26,0000.53,0000.21,16.1,23.3,,00.0,0626.6,30.9
2021-03-23T00:16:00Z,00000200,01000000,0001.85,0000.62,0000.54,0000.54,0000.04,0000.13,0000.96,0000.58,0000.30,16.1,23.3,,00.0,0626.6,30.9
2021-03-23T00:17:00Z,00000200,01000000,0001.77,0001.13,0000.40,0000.54,0000.17,0000.43,0000.46,0000.62,0000.26,16.2,23.3,,00.0,0626.6,30.9
2021-03-23T00:18:00Z,00000200,01000000,0001.47,0001.31,0000.78,0000.08,0000.22,0000.05,0000.34,0000.33,0000.39,16.2,23.3,,00.0,0626.7,30.9
2021-03-23T00:19:00Z,00000200,01000000,0001.56,0000.90,0000.97,-000.03,0000.01,0000.21,0000.19,0000.49,-000.07,16.2,23.3,,00.0,0626.7,30.9
2021-03-23T00:20:00Z,00000200,01000000,0001.31,0001.04,0000.45,0000.14,0000.20,0000.50,0000.66,0000.11,0000.70,16.3,23.4,,00.0,0626.7,30.9
2021-03-23T00:21:00Z,00000200,01000000,0001.08,0001.19,0000.70,0000.25,0000.15,0000.13,0000.37,0000.78,0000.48,16.3,23.4,,00.0,0626.7,30.9
2021-03-23T00:22:00Z,00000200,01000000,0001.19,0000.67,0000.72,0000.12,0000.06,0000.05,0000.86,0000.20,-000.05,16.3,23.4,,00.0,0626.7,30.9
2021-03-23T00:23:00Z,00000200,01000000,0001.52,0001.05,0000.73,0000.45,0000.34,0000.07,0000.26,0000.53,0000.64,16.4,23.4,,00.0,0626.7,30.9
2021-03-23T00:24:00Z,00000200,01000000,0001.38,0001.11,0000.73,0000.79,0000.07,0000.18,0000.48,0000.62,0000.25,16.4,23.5,,00.0,0626.7,30.9
2021-03-23T00:25:00Z,00000200,01000000,0001.38,0000.72,0000.65,0000.37,0000.20,0000.04,0000.80,0000.67,0000.74,16.4,23.5,,00.0,0626.7,30.9
2021-03-23T00:26:00Z,00000200,01000000,0001.66,0000.85,0000.72,-000.14,0000.09,0000.24,0000.21,0000.14,-000.03,16.5,23.5,,00.0,0626.7,30.9
2021-03-23T00:27:00Z,00000200,01000000,0001.57,0000.95,0000.44,0000.31,-000.09,0000.07,0000.80,0000.67,0000.58,16.5,23.5,,00.0,0626.7,30.9
2021-03-23T00:28:00Z,00000200,01000000,0001.20,0001.18,0000.63,0000.01,-000.04,0000.41,0000.67,0000.13,0000.20,16.5,23.5,,00.0,0626.7,30.9
2021-03-23T00:29:00Z,00000200,01000000,0001.84,0001.09,0000.68,0000.23,0000.13,0000.37,0000.19,0000.79,0000.17,16.5,23.5,,00.0,0626.7,30.9
2021-03-23T00:30:00Z,00000200,01000000,0001.17,0000.99,0000.47,-000.32,0000.40,0000.20,0000.84,0000.47,0000.94,16.5,23.5,,00.0,0626.7,30.9
2021-03-23T00:31:00Z,00000200,01000000,0002.09,0001.06,0000.59,-000.00,0000.24,-000.04,0000.37,0000.89,0000.03,16.5,23.5,,00.0,0626.7,30.9
2021-03-23T00:32:00Z,00000200,01000000,0001.38,0000.69,0000.67,-000.27,0000.23,0000.20,0000.75,0000.28,0000.41,16.4,23.5,,00.0,0626.7,30.9
2021-03-23T00:33:00Z,00000200,01000000,0001.39,0001.00,0000.61,0000.29,-000.09,0000.22,0000.87,0000.92,0000.59,16.3,23.4,,00.0,0626.7,30.9
2021-03-23T00:34:00Z,00000200,01000000,0001.83,0000.83,0000.66,0000.24,0000.11,0000.28,0000.52,0000.27,0000.35,16.2,23.4,,00.0,0626.7,30.8
2021-03-23T00:35:00Z,00000200,01000000,0001.33,0000.79,0000.58,-000.58,0000.12,0000.15,0000.52,0000.34,0000.12,16.2,23.3,,00.0,0626.7,30.9
2021-03-23T00:36:00Z,00000200,01000000,0001.70,0000.69,0000.35,0000.12,0000.15,0000.08,-000.09,0000.24,0000.35,16.2,23.3,,00.0,0626.7,30.9
2021-03-23T00:37:00Z,00000200,01000000,0001.46,0000.81,0000.59,0000.41,0000.11,0000.18,0001.23,0001.10,0000.72,16.2,23.4,,00.0,0626.7,30.9
2021-03-23T00:38:00Z,00000200,01000000,0001.63,0001.29,0000.87,0000.37,0000.14,0000.34,0000.89,0000.77,0000.60,16.3,23.4,,00.0,0626.7,30.9
2021-03-23T00:39:00Z,00000200,01000000,0001.78,0001.11,0000.72,-000.16,-000.07,0000.11,0000.52,0000.46,0000.62,16.3,23.4,,00.0,0626.7,30.9
2021-03-23T00:40:00Z,00000200,01000000,0000.84,0001.17,0000.49,0000.03,-000.03,0000.16,0000.81,0000.65,0000.34,16.3,23.4,,00.0,0626.7,30.9
2021-03-23T00:41:00Z,00000200,01000000,0001.72,0001.20,0000.97,0000.03,0000.09,0000.18,0000.54,0000.59,0000.76,16.3,23.4,,00.0,0626.7,30.9
2021-03-23T00:42:00Z,00000200,01000000,0001.71,0001.07,0000.97,-000.13,0000.12,0000.11,0000.09,0000.12,-000.41,16.4,23.4,,00.0,0626.7,30.9
2021-03-23T00:43:00Z,00000200,01000000,0001.52,0000.92,0000.25,0000.43,-000.22,-000.04,0000.75,0000.91,0001.11,16.4,23.4,,00.0,0626.7,30.9
2021-03-23T00:44:00Z,00000200,01000000,0001.99,0001.10,0000.75,0000.40,0000.17,0000.30,0000.79,0000.34,0000.14,16.4,23.5,,00.0,0626.7,30.9
2021-03-23T00:45:00Z,00000200,01000000,0001.64,0000.76,0000.73,0000.23,-000.08,0000.29,0000.53,0000.82,0000.52,16.4,23.5,,00.0,0626.7,30.9
2021-03-23T00:46:00Z,00000200,01000000,0001.68,0000.73,0000.88,-000.16,0000.20,0000.12,-000.01,-000.27,-000.10,16.4,23.5,,00.0,0626.7,30.9
2021-03-23T00:47:00Z,00000200,01000000,0001.50,0001.06,0000.71,-000.02,0000.06,0000.32,0000.38,0000.29,-000.24,16.4,23.5,,00.0,0626.7,30.9
2021-03-23T00:48:00Z,00000200,01000000,0001.47,0000.95,0000.58,0000.17,-000.04,0000.29,0000.34,0000.40,0000.32,16.4,23.4,,00.0,0626.7,30.9
2021-03-23T00:49:00Z,00000200,01000000,0001.78,0001.11,0000.63,0000.16,0000.03,0000.00,0000.83,0000.58,0001.04,16.3,23.4,,00.0,0626.7,30.9
2021-03-23T00:50:00Z,00000200,01000000,0002.38,0001.00,0000.74,0000.87,0000.09,0000.34,0000.36,0000.56,0000.17,16.3,23.4,,00.0,0626.7,30.9
2021-03-23T00:51:00Z,00000200,01000000,0001.83,0000.94,0000.56,-000.10,0000.12,0000.09,0000.39,0000.44,0000.14,16.3,23.4,,00.0,0626.7,30.9
2021-03-23T00:52:00Z,00000200,01000000,0001.37,0000.86,0000.66,0000.14,0000.37,0000.01,0000.56,0000.24,0000.43,16.4,23.4,,00.0,0626.7,30.9
2021-03-23T00:53:00Z,00000200,01000000,0001.47,0000.80,0000.76,-000.14,0000.30,0000.50,0000.25,0000.76,0000.57,16.4,23.4,,00.0,0626.7,30.9
2021-03-23T00:54:00Z,00000200,01000000,0001.56,0000.80,0000.64,-000.13,0000.18,0000.09,0000.73,0000.29,0000.45,16.4,23.4,,00.0,0626.7,30.9
2021-03-23T00:55:00Z,00000200,01000000,0001.01,0000.82,0000.73,0000.21,0000.05,0000.34,0000.67,0000.27,0000.43,16.4,23.5,,00.0,0626.7,30.9
2021-03-23T00:56:00Z,00000200,01000000,0001.77,0000.73,0000.62,0000.52,0000.19,-000.03,0000.30,0000.73,0000.46,16.5,23.5,,00.0,0626.7,30.9
2021-03-23T00:57:00Z,00000200,41000000,,,,,,,0001.71,0001.62,0001.12,16.5,23.5,,00.0,0626.7,30.9
2021-03-23T00:58:00Z,00000200,61000000,,,,,,,-000.42,-000.70,-000.57,16.1,23.7,,00.0,0625.7,30.9
2021-03-23T00:59:00Z,00000200,21000000,,,,,,,-000.23,-000.13,-000.26,16.1,23.8,,00.0,0625.7,30.9
